Location: Lhota
(50.0887°N, 14.0116°E)
Time: 20:02:43
(UTC+00:00)

Cosmos 2123 Rocket - Pass Details

Date: 19 May 2025
Orbit: 960 x 992 km, 82.9° (Epoch: 20 June)

Event Time Altitude Azimuth Distance (km) Brightness Sun altitude
Exits shadow 23:30:43 30° 162° (SSE) 1,691 4.8 -19.6°
Maximum altitude 23:33:51 62° 93° (E) 1,111 4.3 -19.5°
Drops below altitude 10° 23:40:06 10° 15° (NNE) 2,764 7.6 -19.4°
Sets 23:42:39 0° 12° (NNE) 3,714 8.7 -19.3°
